GW6200 Weather Reports


Display with metric or nautical units.
time (UTC)temp
F
wind
direction
speed
MPH
gust
MPH
rain 1hr
in
rain 24hr
in
rain mn
in
humidity
%
barometer
mb
20260503005903 51 355 1.0 3.0 0.02 0.06 0.06 92 1011.7
20260503004903 51 324 0.0 0.0 0.04 0.06 0.06 92 1011.7
20260503003906 51 324 0.0 1.0 0.04 0.05 0.05 92 1011.7
20260503002903 51 324 0.0 1.0 0.04 0.05 0.05 92 1011.8
20260503001905 51 324 0.0 1.0 0.05 0.05 0.05 92 1011.8
20260503000906 51 324 0.0 1.0 0.04 0.04 0.04 91 1011.9
20260502235902 51 324 0.0 1.0 0.03 0.03 0.04 91 1011.9
20260502234917 51 324 0.0 1.0 0.02 0.02 0.02 90 1012.0
20260502233919 51 324 1.0 2.0 0.01 0.01 0.01 90 1012.1
20260502232903 51 300 0.0 2.0 0.01 0.01 0.01 90 1012.1
20260502231904 51 298 0.0 0.0 0.00 0.00 0.00 90 1012.1
20260502225904 52 298 0.0 0.0 0.00 0.00 0.00 90 1012.1
20260502224905 52 298 0.0 1.0 0.00 0.00 0.00 89 1012.0
20260502223905 52 298 0.0 0.0 0.00 0.00 0.00 88 1012.0
20260502222905 52 298 0.0 1.0 0.00 0.00 0.00 89 1012.0
20260502221904 52 298 0.0 1.0 0.00 0.00 0.00 88 1012.1
20260502220905 52 298 0.0 1.0 0.00 0.00 0.00 88 1012.2
20260502215904 52 298 0.0 1.0 0.00 0.00 0.00 87 1012.2
20260502214905 52 298 0.0 0.0 0.00 0.00 0.00 87 1012.2
20260502213906 53 298 1.0 2.0 0.00 0.00 0.00 87 1012.2
20260502211903 53 298 0.0 1.0 0.00 0.00 0.00 86 1012.4
20260502205903 53 298 0.0 1.0 0.00 0.00 0.00 84 1012.4
20260502204905 54 298 0.0 0.0 0.00 0.00 0.00 82 1012.5
20260502203907 54 298 0.0 2.0 0.00 0.00 0.00 82 1012.6
20260502202903 54 298 1.0 3.0 0.00 0.00 0.00 82 1012.6
20260502200906 55 221 0.0 1.0 0.00 0.00 0.00 80 1012.6
20260502195903 55 221 0.0 2.0 0.00 0.00 0.00 79 1012.7
20260502194903 55 221 0.0 2.0 0.00 0.00 0.00 80 1012.6
20260502193905 55 221 0.0 2.0 0.00 0.00 0.00 79 1012.6
20260502192904 55 221 0.0 1.0 0.00 0.00 0.00 79 1012.4
20260502191903 55 221 0.0 2.0 0.00 0.00 0.00 80 1012.4
20260502190906 56 221 1.0 4.0 0.00 0.00 0.00 79 1012.4
20260502185904 56 221 1.0 4.0 0.00 0.00 0.00 78 1012.4
20260502184905 56 210 2.0 4.0 0.00 0.00 0.00 78 1012.4
20260502183906 56 220 1.0 3.0 0.00 0.00 0.00 78 1012.3
20260502181903 57 232 0.0 3.0 0.00 0.00 0.00 75 1012.3
20260502180906 58 117 0.0 3.0 0.00 0.00 0.00 74 1012.3
20260502163908 58 126 3.0 8.0 0.00 0.00 0.00 75 1012.6
20260502162904 58 173 4.0 9.0 0.00 0.00 0.00 76 1012.6
20260502161905 58 130 4.0 9.0 0.00 0.00 0.00 76 1012.6
20260502160907 57 178 3.0 10.0 0.00 0.00 0.00 76 1012.7
20260502151906 58 152 4.0 10.0 0.00 0.00 0.00 78 1013.0
20260502122852 56 172 3.0 7.0 0.00 0.00 0.00 84 1014.5
20260502121853 56 163 2.0 7.0 0.00 0.00 0.00 82 1014.6
20260502115853 57 238 2.0 5.0 0.00 0.00 0.00 84 1014.5
20260502113855 56 217 2.0 5.0 0.00 0.00 0.00 88 1014.7
20260502112852 55 198 2.0 6.0 0.00 0.00 0.00 87 1014.8
20260502110854 54 219 2.0 0.0 0.00 0.00 0.00 89 1014.9
20260502110203 54 178 2.0 8.0 0.00 0.14 0.00 89 1015.0
20260502105202 54 128 3.0 6.0 0.00 0.14 0.00 89 1015.0
20260502104204 54 149 3.0 6.0 0.00 0.14 0.00 89 1015.0
20260502103203 54 138 3.0 8.0 0.00 0.14 0.00 89 1015.1
20260502102203 54 210 3.0 6.0 0.00 0.14 0.00 89 1015.0
20260502091202 54 188 3.0 9.0 0.00 0.14 0.00 88 1015.0
20260502090202 55 167 2.0 7.0 0.00 0.14 0.00 87 1015.0
20260502071204 52 188 2.0 5.0 0.00 0.14 0.00 93 1014.8
20260502070202 52 148 1.0 5.0 0.00 0.14 0.00 94 1014.7
20260502065205 52 181 0.0 1.0 0.00 0.14 0.00 94 1014.6
20260502064204 52 181 0.0 1.0 0.00 0.14 0.00 94 1014.6
20260502063203 52 181 0.0 2.0 0.00 0.14 0.00 94 1014.6
20260502062201 52 181 0.0 1.0 0.00 0.14 0.00 94 1014.6
20260502061201 52 181 0.0 2.0 0.00 0.14 0.00 95 1014.6
20260502060157 51 181 0.0 2.0 0.00 0.14 0.00 95 1014.6
20260502055158 51 181 0.0 1.0 0.00 0.14 0.00 94 1014.6
20260502054158 51 181 0.0 1.0 0.00 0.14 0.00 94 1014.7
20260502053157 51 181 0.0 1.0 0.00 0.14 0.00 94 1014.6
20260502052158 51 181 0.0 2.0 0.00 0.14 0.00 94 1014.6
20260502045156 51 181 0.0 1.0 0.00 0.14 0.00 94 1014.6
20260502044155 51 181 0.0 1.0 0.00 0.14 0.00 94 1014.5
20260502043155 51 181 0.0 1.0 0.00 0.14 0.00 93 1014.6
20260502042155 51 181 0.0 0.0 0.00 0.14 0.00 93 1014.7
20260502041155 51 181 0.0 2.0 0.00 0.14 0.00 93 1014.6
20260502040155 51 187 0.0 1.0 0.00 0.14 0.00 93 1014.7
20260502035155 51 187 0.0 1.0 0.00 0.14 0.00 93 1014.7
20260502034156 51 187 0.0 0.0 0.00 0.14 0.00 93 1014.9
20260502033154 51 187 0.0 1.0 0.00 0.14 0.00 93 1015.0
20260502032153 51 187 0.0 1.0 0.00 0.14 0.00 93 1014.9
20260502031153 51 187 0.0 1.0 0.00 0.14 0.00 93 1014.9
20260502030153 51 187 0.0 1.0 0.00 0.14 0.00 93 1015.1
20260502025153 51 187 0.0 1.0 0.00 0.14 0.00 93 1015.1
20260502024153 51 187 0.0 1.0 0.00 0.14 0.00 93 1015.1
20260502023151 51 187 0.0 1.0 0.00 0.14 0.00 92 1015.3
20260502022151 51 187 0.0 2.0 0.00 0.14 0.00 92 1015.3
20260502021152 51 187 0.0 1.0 0.00 0.14 0.00 92 1015.5
20260502020152 51 187 0.0 1.0 0.00 0.14 0.00 92 1015.6
20260502015151 51 187 1.0 2.0 0.00 0.14 0.00 92 1015.8
20260502014151 51 187 1.0 4.0 0.00 0.14 0.00 92 1015.9
20260502013152 51 165 2.0 5.0 0.00 0.14 0.00 92 1015.8
20260502012149 51 173 3.0 5.0 0.00 0.14 0.00 92 1016.0
20260502011149 51 192 1.0 4.0 0.00 0.14 0.00 92 1016.1
20260502010148 51 169 0.0 2.0 0.00 0.14 0.00 92 1016.2